Regional Weather Roundup
Issued by NWS Sterling, VA

Current Version | Previous Version | Text Only | Print | Product List | Glossary On
Versions: 1 2 3 4 5 6 7 8 9 10 11 12 13 14 15 16 17 18 19 20 21 22 23 24 25 26 27 28 29 30 31 32 33 34 35 36 37 38 39 40 41 42 43 44 45 46 47 48 49 50
000
ASUS41 KLWX 260711
RWRLWX

REGIONAL WEATHER ROUNDUP
NATIONAL WEATHER SERVICE BALTIMORE MD/WASHINGTON DC
300 AM EDT TUE SEP 26 2017

Note: "FAIR" indicates few or no clouds below 12,000 feet
with no significant weather and/or obstructions to visibility.
 TC=TEMPERATURE CELSIUS

 * =Non NWS site. Station does not report precipitation (e.g. rain,
    snow, etc.), thunder, or fog.

DCZ001-MDZ009-015-VAZ040>042-051-053>054-260800-
WASHINGTON METRO

CITY           SKY/WX    TMP DP  RH WIND       PRES   REMARKS
WASHINGTON NAT MOCLDY    72  65  78 N9        30.00F
DULLES         PTCLDY    68  66  93 CALM      30.01S
ANDREWS AFB    CLEAR     67  63  87 NE7       29.99F
FT BELVOIR     PTCLDY    67  64  89 CALM      29.99F
QUANTICO       PTCLDY    73  68  84 NE9       29.99S
COLLEGE PARK*  CLEAR     65  64  94 CALM      30.00S
LEESBURG*      PTCLDY    72  68  88 NE3       30.03R
MANASSAS*      CLEAR     67  65  93 N6        30.00F
GAITHERSBURG*  CLEAR     68  64  87 CALM      30.03F

$$

MDZ006>007-011-014-260800-
BALTIMORE METRO

CITY           SKY/WX    TMP DP  RH WIND       PRES   REMARKS
BWI AIRPORT    MOCLDY    70  66  87 NE5       30.00F
MD SCIENCE CTR   N/A     74  66  76 MISG      30.01F
MARTIN STATE   CLEAR     70  70 100 CALM      30.02F
ANNAPOLIS      PTCLDY    72  71  97 N6        29.99F
FORT MEADE*    PTCLDY    63  61  94 CALM      30.03S

$$

MDZ012-015-019>023-260800-
MARYLAND EASTERN SHORE

CITY           SKY/WX    TMP DP  RH WIND       PRES   REMARKS
OCEAN CITY     CLOUDY    68  68 100 NE10      29.97S
SALISBURY      CLOUDY    68  68 100 NE9       29.97S
CAMBRIDGE*     FOG       68  66  94 VRB3      29.98F VSB 1/2
EASTON*        CLOUDY    69  66  90 E6        30.03S

$$

MDZ017>025-260800-
SOUTHERN MARYLAND

CITY           SKY/WX    TMP DP  RH WIND       PRES   REMARKS
PATUXENT RIVER CLOUDY    69  68  96 NE8       29.97F
ST INIGOES     NOT AVBL
LEONARDTOWN*   CLOUDY    68  64  88 CALM      29.99S

$$

MDZ003>005-260800-
NORTH CENTRAL MARYLAND

CITY           SKY/WX    TMP DP  RH WIND       PRES   REMARKS
FREDERICK*     CLEAR     68  68 100 CALM      30.05S
HAGERSTOWN APT CLEAR     73  67  81 NE6       30.03S
WESTMINSTER*     N/A     70  66  88 CALM      30.03F

$$

MDZ501>502-260800-
WESTERN MARYLAND

CITY           SKY/WX    TMP DP  RH WIND       PRES   REMARKS
OAKLAND*       CLEAR     64  61  88 E5        30.10S
CUMBERLAND*    CLEAR     68  66  94 CALM      30.07S

$$

VAZ025>031-260800-
SHENANDOAH VALLEY

CITY           SKY/WX    TMP DP  RH WIND       PRES   REMARKS
WINCHESTER*    CLEAR     64  63  94 CALM      30.02S FOG
FRONT ROYAL*   CLEAR     68  64  88 CALM      30.01S
LURAY*         MOCLDY    66  64  94 CALM      30.03R
NEW MARKET*    CLOUDY    62  61  96 CALM      30.03S
STAUNTON*      MOCLDY    64  62  95 CALM      30.05F
WAYNESBORO*    CLOUDY    67  66  94 N5        30.04F

$$

WVZ021-048>050-054>055-260800-
EASTERN WEST VIRGINIA PANHANDLE

CITY           SKY/WX    TMP DP  RH WIND       PRES   REMARKS
MARTINSBURG    CLEAR     69  66  90 CALM      30.01S
PETERSBURG*      N/A     64  63  98 CALM      30.04F FOG

$$

VAZ036>039-050-260800-
CENTRAL FOOTHILLS

CITY           SKY/WX    TMP DP  RH WIND       PRES   REMARKS
CHARLOTTESVILL MOCLDY    70  67  90 NW3       30.00S
CULPEPER*      PTCLDY    67  67  98 N3        30.01S
ORANGE*        PTCLDY    68  64  88 N3        30.00S
GORDONSVILLE*  MOCLDY    66  66 100 CALM      29.99F
WARRENTON*     PTCLDY    69  64  84 NE3       30.00S

$$

VAZ055>057-260800-
NORTH AND CENTRAL PIEDMONT

CITY           SKY/WX    TMP DP  RH WIND       PRES   REMARKS
FREDERICKSBRG* MOCLDY    70  67  89 CALM      29.98F
STAFFORD*      PTCLDY    66  66 100 N3        30.03S

$$

NCZ024-NYZ072-PAZ021-071-VAZ022-071-260800-
OTHER REGIONAL OBSERVATIONS

CITY           SKY/WX    TMP DP  RH WIND       PRES   REMARKS
NEW YORK CITY  CLOUDY    70  65  84 CALM      30.07S
PHILADELPHIA   MOCLDY    67  64  90 NE3       30.02F
PITTSBURGH     MOCLDY    70  65  84 CALM      30.04R
ROANOKE        PTCLDY    67  65  93 CALM      30.04F
RICHMOND       CLOUDY    70  67  90 NE9       29.96S
RALEIGH        MOCLDY    69  67  93 NE9       29.92F

$$

ANZ530>537-260800-
MARINE OBSERVATIONS

STATION/POSITION TIME  TEMP    WIND        PRES
                       AIR SEA DIR/SP/G
                 (UTC) (F)     (DEG/KT/KT) (MB)
THOMAS PT LIGHT  0700   70 77   50/ 11/ 12   N/A
BALT KEY BRIDGE  0648   72      50/  5/  6 1016.0F
COVE POINT       0648   69      70/ 11/ 12 1015.9F
LEWISETTA        0648   72 78   60/  8/ 12 1014.4F
SOLOMONS ISLAND  0648   69 77   20/  7/ 10 1014.6F
PINEY POINT      0636           70/  6/  8   N/A

$$




USA.gov is the U.S. government's official web portal to all federal, state and local government web resources and services.